| time (UTC) | temp F | wind direction | speed MPH | gust MPH | rain 1hr in | rain 24hr in | rain mn in | humidity % | barometer mb |
| 20260902184525 | 81 | 251 | 2.0 | 7.0 | 0.00 | 0.20 | 0.20 | 81 | 1014.8 |
| 20260902183023 | 81 | 269 | 2.0 | 5.0 | 0.00 | 0.20 | 0.20 | 80 | 1014.5 |
| 20260902181520 | 81 | 269 | 2.0 | 4.0 | 0.00 | 0.20 | 0.20 | 80 | 1014.5 |
| 20260902180023 | 81 | 227 | 1.0 | 4.0 | 0.00 | 0.20 | 0.20 | 82 | 1014.7 |
| 20260902174530 | 81 | 250 | 1.0 | 7.0 | 0.00 | 0.20 | 0.20 | 81 | 1014.8 |
| 20260902173023 | 82 | 227 | 2.0 | 7.0 | 0.00 | 0.20 | 0.20 | 80 | 1015.1 |
| 20260902171517 | 82 | 254 | 2.0 | 8.0 | 0.00 | 0.20 | 0.20 | 78 | 1015.7 |
| 20260902170021 | 82 | 257 | 1.0 | 5.0 | 0.00 | 0.20 | 0.20 | 78 | 1015.6 |
| 20260902164532 | 82 | 277 | 2.0 | 8.0 | 0.00 | 0.20 | 0.20 | 78 | 1015.3 |
| 20260902163030 | 81 | 207 | 2.0 | 7.0 | 0.00 | 0.20 | 0.20 | 79 | 1015.2 |
| 20260902161534 | 80 | 263 | 1.0 | 8.0 | 0.00 | 0.20 | 0.20 | 84 | 1015.3 |
| 20260902160025 | 79 | 285 | 1.0 | 8.0 | 0.00 | 0.20 | 0.20 | 86 | 1015.4 |
| 20260902154542 | 77 | 257 | 2.0 | 7.0 | 0.00 | 0.20 | 0.20 | 88 | 1015.4 |
| 20260902153045 | 75 | 238 | 1.0 | 7.0 | 0.00 | 0.20 | 0.20 | 93 | 1015.6 |
| 20260902151539 | 73 | 249 | 1.0 | 4.0 | 0.00 | 0.20 | 0.20 | 95 | 1015.7 |
| 20260902150023 | 72 | 230 | 1.0 | 4.0 | 0.00 | 0.20 | 0.20 | 98 | 1015.9 |
| 20260902144539 | 70 | 255 | 1.0 | 6.0 | 0.00 | 0.20 | 0.20 | 97 | 1016.2 |
| 20260902143040 | 70 | 220 | 1.0 | 3.0 | 0.00 | 0.20 | 0.20 | 97 | 1016.2 |
| 20260902141535 | 70 | 175 | 1.0 | 4.0 | 0.01 | 0.20 | 0.20 | 97 | 1016.3 |
| 20260902140033 | 69 | 240 | 1.0 | 2.0 | 0.01 | 0.20 | 0.20 | 97 | 1016.8 |
| 20260902134539 | 69 | 182 | 0.0 | 2.0 | 0.01 | 0.20 | 0.20 | 97 | 1016.8 |
| 20260902133011 | 68 | 264 | 0.0 | 2.0 | 0.02 | 0.20 | 0.20 | 96 | 1017.0 |
| 20260902131536 | 68 | 250 | 1.0 | 2.0 | 0.10 | 0.19 | 0.19 | 96 | 1017.1 |
| 20260902130034 | 69 | 257 | 0.0 | 1.0 | 0.19 | 0.19 | 0.19 | 96 | 1017.4 |
| 20260902124532 | 69 | 261 | 0.0 | 1.0 | 0.19 | 0.19 | 0.19 | 96 | 1017.4 |
| 20260902123012 | 70 | 161 | 0.0 | 2.0 | 0.18 | 0.18 | 0.18 | 96 | 1016.9 |
| 20260902121512 | 71 | 211 | 0.0 | 9.0 | 0.08 | 0.08 | 0.09 | 96 | 1017.6 |
| 20260902120038 | 71 | 275 | 1.0 | 2.0 | 0.00 | 0.00 | 0.00 | 96 | 1016.1 |
| 20260902114548 | 71 | 244 | 0.0 | 3.0 | 0.00 | 0.00 | 0.00 | 97 | 1015.6 |
| 20260902113013 | 71 | 165 | 0.0 | 3.0 | 0.00 | 0.00 | 0.00 | 97 | 1014.8 |
| 20260902111510 | 71 | 148 | 1.0 | 4.0 | 0.00 | 0.00 | 0.00 | 97 | 1013.9 |
| 20260902110008 | 71 | 175 | 1.0 | 3.0 | 0.00 | 0.00 | 0.00 | 97 | 1014.4 |
| 20260902104514 | 71 | 186 | 0.0 | 5.0 | 0.00 | 0.00 | 0.00 | 97 | 1014.3 |
| 20260902103004 | 71 | 163 | 1.0 | 3.0 | 0.00 | 0.00 | 0.00 | 97 | 1014.2 |
| 20260902101602 | 71 | 188 | 0.0 | 3.0 | 0.00 | 0.00 | 0.00 | 97 | 1014.3 |
| 20260902100103 | 70 | 182 | 1.0 | 2.0 | 0.00 | 0.00 | 0.00 | 97 | 1014.5 |
| 20260902094514 | 70 | 202 | 1.0 | 2.0 | 0.00 | 0.00 | 0.00 | 97 | 1014.6 |
| 20260902093021 | 70 | 190 | 1.0 | 3.0 | 0.00 | 0.00 | 0.00 | 97 | 1015.4 |
| 20260902091539 | 70 | 175 | 0.0 | 2.0 | 0.00 | 0.00 | 0.00 | 96 | 1015.4 |
| 20260902090054 | 70 | 186 | 1.0 | 2.0 | 0.00 | 0.00 | 0.00 | 96 | 1015.5 |
| 20260902084559 | 69 | 171 | 1.0 | 2.0 | 0.00 | 0.00 | 0.00 | 96 | 1015.5 |
| 20260902083048 | 69 | 130 | 0.0 | 1.0 | 0.00 | 0.00 | 0.00 | 96 | 1015.7 |
| 20260902081559 | 70 | 130 | 1.0 | 2.0 | 0.00 | 0.00 | 0.00 | 96 | 1015.9 |
| 20260902080044 | 70 | 170 | 0.0 | 2.0 | 0.00 | 0.01 | 0.00 | 96 | 1016.0 |
| 20260902074538 | 70 | 188 | 1.0 | 3.0 | 0.00 | 0.01 | 0.00 | 96 | 1016.1 |
| 20260902073056 | 70 | 175 | 0.0 | 4.0 | 0.00 | 0.01 | 0.00 | 95 | 1016.1 |
| 20260902071551 | 70 | 178 | 1.0 | 3.0 | 0.00 | 0.01 | 0.00 | 95 | 1016.2 |
| 20260902070045 | 70 | 178 | 1.0 | 3.0 | 0.00 | 0.01 | 0.00 | 95 | 1016.3 |
| 20260902064504 | 70 | 172 | 2.0 | 3.0 | 0.00 | 0.01 | 0.00 | 95 | 1016.2 |
| 20260902063100 | 70 | 174 | 1.0 | 3.0 | 0.00 | 0.01 | 0.00 | 95 | 1016.3 |
| 20260902060007 | 70 | 165 | 1.0 | 4.0 | 0.00 | 0.01 | 0.00 | 96 | 1016.3 |
| 20260902054505 | 70 | 182 | 1.0 | 3.0 | 0.00 | 0.01 | 0.00 | 96 | 1016.3 |
| 20260902053013 | 70 | 186 | 1.0 | 3.0 | 0.00 | 0.01 | 0.00 | 96 | 1016.4 |
| 20260902051545 | 70 | 155 | 1.0 | 3.0 | 0.00 | 0.01 | 0.00 | 96 | 1016.6 |
| 20260902050052 | 69 | 163 | 1.0 | 4.0 | 0.00 | 0.04 | 0.00 | 97 | 1016.5 |
| 20260902044505 | 69 | 169 | 1.0 | 4.0 | 0.00 | 0.04 | 0.00 | 97 | 1016.7 |
| 20260902043007 | 68 | 189 | 0.0 | 2.0 | 0.00 | 0.04 | 0.00 | 96 | 1016.5 |
| 20260902041601 | 68 | 188 | 0.0 | 2.0 | 0.00 | 0.04 | 0.00 | 96 | 1016.5 |
| 20260902040012 | 68 | 188 | 0.0 | 0.0 | 0.00 | 0.04 | 0.04 | 95 | 1016.5 |
| 20260902034505 | 68 | 188 | 0.0 | 0.0 | 0.00 | 0.04 | 0.04 | 95 | 1016.6 |
| 20260902033103 | 69 | 188 | 0.0 | 1.0 | 0.00 | 0.04 | 0.04 | 95 | 1016.6 |
| 20260902033002 | 69 | 188 | 0.0 | 0.0 | 0.00 | 0.04 | 0.04 | 95 | 1016.5 |
| 20260902031554 | 69 | 188 | 0.0 | 2.0 | 0.00 | 0.04 | 0.04 | 95 | 1016.4 |
| 20260902030018 | 69 | 174 | 0.0 | 2.0 | 0.00 | 0.04 | 0.04 | 95 | 1016.4 |
| 20260902024512 | 69 | 188 | 0.0 | 2.0 | 0.00 | 0.04 | 0.04 | 95 | 1016.5 |
| 20260902023040 | 69 | 123 | 0.0 | 3.0 | 0.00 | 0.04 | 0.04 | 95 | 1016.5 |
| 20260902021539 | 69 | 87 | 0.0 | 3.0 | 0.00 | 0.04 | 0.04 | 94 | 1016.5 |
| 20260902020104 | 70 | 148 | 0.0 | 2.0 | 0.00 | 0.04 | 0.04 | 94 | 1016.5 |
| 20260902014552 | 70 | 58 | 0.0 | 3.0 | 0.00 | 0.04 | 0.04 | 94 | 1016.6 |
| 20260902013018 | 70 | 127 | 1.0 | 3.0 | 0.00 | 0.04 | 0.04 | 93 | 1016.5 |
| 20260902011547 | 71 | 21 | 1.0 | 3.0 | 0.00 | 0.04 | 0.04 | 93 | 1016.5 |
| 20260902004548 | 71 | 87 | 0.0 | 0.0 | 0.00 | 0.04 | 0.04 | 92 | 1016.1 |
| 20260902003044 | 72 | 30 | 0.0 | 1.0 | 0.00 | 0.04 | 0.04 | 91 | 1015.8 |
| 20260902001530 | 72 | 15 | 0.0 | 4.0 | 0.00 | 0.04 | 0.04 | 91 | 1015.6 |
| 20260902000052 | 72 | 351 | 0.0 | 1.0 | 0.00 | 0.04 | 0.04 | 90 | 1015.3 |
| 20260901234544 | 73 | 163 | 0.0 | 2.0 | 0.00 | 0.04 | 0.04 | 89 | 1015.4 |
| 20260901233006 | 73 | 346 | 0.0 | 4.0 | 0.00 | 0.04 | 0.04 | 89 | 1015.4 |
| 20260901231557 | 74 | 134 | 0.0 | 3.0 | 0.00 | 0.04 | 0.04 | 88 | 1015.4 |
| 20260901230058 | 74 | 109 | 0.0 | 2.0 | 0.00 | 0.04 | 0.04 | 88 | 1015.6 |
| 20260901224606 | 75 | 61 | 0.0 | 4.0 | 0.00 | 0.04 | 0.04 | 88 | 1015.6 |
| 20260901224502 | 75 | 355 | 1.0 | 4.0 | 0.00 | 0.04 | 0.04 | 88 | 1015.6 |
| 20260901223009 | 76 | 5 | 0.0 | 4.0 | 0.00 | 0.04 | 0.04 | 88 | 1015.5 |
| 20260901221503 | 76 | 355 | 0.0 | 3.0 | 0.00 | 0.04 | 0.04 | 87 | 1015.5 |
| 20260901220101 | 76 | 355 | 1.0 | 3.0 | 0.00 | 0.05 | 0.04 | 87 | 1015.4 |
| 20260901214603 | 76 | 35 | 0.0 | 3.0 | 0.00 | 0.05 | 0.04 | 86 | 1015.5 |
| 20260901214503 | 76 | 49 | 1.0 | 3.0 | 0.00 | 0.05 | 0.04 | 86 | 1015.4 |
| 20260901213121 | 77 | 360 | 0.0 | 4.0 | 0.00 | 0.05 | 0.04 | 86 | 1015.4 |
| 20260901213002 | 77 | 360 | 0.0 | 4.0 | 0.00 | 0.05 | 0.04 | 86 | 1015.4 |
| 20260901211600 | 77 | 16 | 2.0 | 6.0 | 0.00 | 0.05 | 0.04 | 85 | 1015.4 |
| 20260901211503 | 77 | 19 | 2.0 | 6.0 | 0.00 | 0.05 | 0.04 | 85 | 1015.5 |
| 20260901210022 | 78 | 319 | 1.0 | 5.0 | 0.00 | 0.06 | 0.04 | 84 | 1015.3 |
| 20260901204514 | 77 | 36 | 0.0 | 3.0 | 0.00 | 0.06 | 0.04 | 85 | 1015.2 |
| 20260901203058 | 77 | 11 | 0.0 | 3.0 | 0.00 | 0.06 | 0.04 | 86 | 1015.2 |
| 20260901201545 | 76 | 74 | 1.0 | 5.0 | 0.00 | 0.06 | 0.04 | 87 | 1015.5 |
| 20260901200110 | 76 | 5 | 0.0 | 3.0 | 0.00 | 0.13 | 0.04 | 86 | 1015.7 |
| 20260901194559 | 77 | 9 | 0.0 | 4.0 | 0.00 | 0.13 | 0.04 | 87 | 1015.6 |
| 20260901194501 | 76 | 9 | 0.0 | 4.0 | 0.00 | 0.13 | 0.04 | 87 | 1015.6 |
| 20260901193021 | 76 | 17 | 1.0 | 6.0 | 0.00 | 0.13 | 0.04 | 87 | 1015.6 |
| 20260901191518 | 76 | 9 | 0.0 | 4.0 | 0.00 | 0.13 | 0.04 | 88 | 1015.6 |
| 20260901190007 | 75 | 20 | 1.0 | 6.0 | 0.00 | 0.54 | 0.04 | 87 | 1015.6 |